Location: Brachbach
(49.1847°N, 9.7240°E)
Time: 09:58:06
(UTC+00:00)

FENGYUN 3A - Pass Details

Date: 23 May 2024
Orbit: 821 x 835 km, 98.6° (Epoch: 15 June)

Event Time Altitude Azimuth Distance (km) Brightness Sun altitude
Rises 02:14:17 0° 12° (NNE) 3,372 8.0 -9.9°
Reaches altitude 10° 02:16:40 10° 10° (N) 2,434 7.1 -9.7°
Maximum altitude 02:22:00 67° 289° (WNW) 894 3.8 -9.1°
Drops below altitude 10° 02:27:17 10° 208° (SSW) 2,414 5.5 -8.5°
Enters shadow 02:27:28 - 208° (SSW) 2,482 5.5 -8.5°
